Location: Newark
(25.0000°N, 73.5000°E)
Time: 04:52:35
(UTC+00:00)

Altair - Pass Details

Date: 02 March 2021
Orbit: 1501 x 1683 km, 47.2° (Epoch: 12 April)

Event Time Altitude Azimuth Distance (km) Brightness Sun altitude
Rises 13:13:56 0° 237° (WSW) 4,625 11.4 -2.0°
Reaches altitude 10° 13:17:00 10° 241° (WSW) 3,643 10.9 -2.7°
Maximum altitude 13:26:00 62° 320° (NW) 1,668 8.0 -4.7°
Drops below altitude 10° 13:35:14 10° 41° (NE) 3,714 9.1 -6.8°
Sets 13:38:24 0° 44° (NE) 4,720 9.6 -7.5°
